Terminal Aerodrome Forecast
Issued by NWS

Home | Current Version | Previous Version | Text Only | Print | Product List | Glossary On
Versions: 1 2 3 4 5 6 7 8 9 10 11 12 13 14 15 16 17 18 19 20
000
FTUS46 KMTR 010234 AAA
TAFSNS
TAF AMD
KSNS 010234Z 0103/0124 28008KT P6SM OVC008
     FM011200 28003KT 4SM BR OVC005
     FM011600 28004KT P6SM BKN009
     FM011800 29004KT P6SM BKN015
     FM011900 29008KT P6SM SCT250
     FM012200 27015KT P6SM SCT250=

USA.gov is the U.S. government's official web portal to all federal, state and local government web resources and services.